Погода в Яровом

Россия / Курганская область     54°53′06″N   66°13′26″E
темп.,
°C
ветер,
м/с
пор.,
м/с
влажн.,
%
обл.,
%
осадки,
мм/ч
давл.,
гПа
погр.,
м
8 мая, сб
сб823:00+13юз23434 0.0 102018
02:00+11ююз11475 0.0 102010
05:00+10ююв22505 0.0 102010
08:00+15ююв23395 0.0 1020273
11:00+19юв3328100 0.0 10191611
14:00+21ююв3324100 0.0 10172359
17:00+21юв2323100 0.0 10162493
20:00+18в343596 0.0 101657
9 мая, вс
вс923:00+16всв3436100 0.0 101547
02:00+14всв3541100 0.0 101486
05:00+13св3646100 0.0 1015111
08:00+15всв4645100 0.0 1015268
11:00+20всв683190 0.0 1014989
14:00+22в91028100 0.0 10143066
17:00+19всв71038100 0.1 10151946
20:00+19в71237100 0.0 1015921
10 мая, пн
пн1023:00+16в485592 0.1 1016281
02:00+14св61254100 0.0 1017453
05:00+13св61147100 0.0 1019498
08:00+13всв7104295 0.0 1020712
11:00+17св7929100 0.0 10211482
14:00+19всв7924100 0.0 10211817
17:00+19всв6724100 0.0 10211947
20:00+15всв34365 0.0 102253
11 мая, вт
вт1123:00+12в224237 0.0 102410
02:00+11зюз22450 0.0 102410
05:00+10зсз33490 0.0 102419
08:00+15сз343885 0.0 1024320
11:00+19сз4428100 0.0 10241879
14:00+21зсз4524100 0.0 10232101
17:00+21зсз5524100 0.0 10222286
20:00+17ссз3639100 0.0 1022159
12 мая, ср
ср1223:00+15ссз1148100 0.0 102223
02:00+13ссз5881100 0.2 1022499
05:00+10ссз6107931 0.3 1023511
08:00+9ссз7875100 0.0 1024823
11:00+10с6869100 0.0 1024885
14:00+14с6857100 0.0 10241358
17:00+15ссв6853100 0.0 10241350
20:00+13св3663100 0.0 1025158